When you browse on this site, cookies collect data to enhance your experience and personalize the content and advertising you see.
Visit our Privacy Policy to learn more. By continuing to use the site, you agree to this use of cookies and data.
  • Em Portugal
  • Lista de países
  • Para 7 dias
  • Temperatura da água
  • Mapas de satélite
  • Mapa do tempo
  • Widgets de tempo
  • user-avatar
    Iniciar Sessão

    Previsão horária em Gotelp

    Hoje, 18 Fevereiro, Segunda-feira

    Tempo Temperatura Precipitação Vento Pressão Humidade
    00:00 +4°C° 0 mm 1 m/s 755 mmHg 96%
    01:00 +2°C° 0 mm 0 m/s 755 mmHg 96%
    02:00 +2°C° 0 mm 0 m/s 755 mmHg 96%
    03:00 +2°C° 0 mm 0 m/s 755 mmHg 96%
    04:00 +3°C° 0 mm 1 m/s 755 mmHg 96%
    05:00 +3°C° 0 mm 1 m/s 754 mmHg 97%
    06:00 +3°C° 0 mm 1 m/s 754 mmHg 97%
    07:00 +3°C° 0 mm 1 m/s 754 mmHg 97%
    08:00 +3°C° 0 mm 2 m/s 754 mmHg 95%
    09:00 +4°C° 0 mm 2 m/s 754 mmHg 92%
    10:00 +4°C° 0 mm 3 m/s 754 mmHg 90%
    11:00 +7°C° 0 mm 3 m/s 754 mmHg 85%
    12:00 +8°C° 0 mm 3 m/s 754 mmHg 80%
    13:00 +9°C° 0 mm 3 m/s 753 mmHg 75%
    14:00 +9°C° 0 mm 3 m/s 753 mmHg 74%
    15:00 +8°C° 0 mm 3 m/s 753 mmHg 74%
    16:00 +8°C° 0 mm 3 m/s 752 mmHg 73%
    17:00 +7°C° 0 mm 3 m/s 752 mmHg 76%
    18:00 +5°C° 0 mm 3 m/s 752 mmHg 79%
    19:00 +5°C° 0 mm 2 m/s 751 mmHg 83%
    20:00 +5°C° 0 mm 2 m/s 751 mmHg 83%
    21:00 +4°C° 0 mm 2 m/s 751 mmHg 83%
    22:00 +4°C° 0 mm 2 m/s 750 mmHg 84%
    23:00 +3°C° 0 mm 2 m/s 750 mmHg 84%

    Amanhã, 19 Fevereiro, Terça-feira

    Tempo Temperatura Precipitação Vento Pressão Humidade
    00:00 +3°C° 0 mm 2 m/s 750 mmHg 85%
    01:00 +3°C° 0 mm 2 m/s 750 mmHg 85%
    02:00 +3°C° 0 mm 2 m/s 749 mmHg 85%
    03:00 +2°C° 0 mm 2 m/s 748 mmHg 85%
    04:00 +1°C° 0 mm 3 m/s 748 mmHg 85%
    05:00 +1°C° 0 mm 3 m/s 748 mmHg 85%
    06:00 +1°C° 0 mm 3 m/s 747 mmHg 85%
    07:00 +1°C° 0 mm 3 m/s 747 mmHg 85%
    08:00 +1°C° 0 mm 4 m/s 746 mmHg 82%
    09:00 +3°C° 0 mm 4 m/s 746 mmHg 78%
    10:00 +3°C° 0 mm 5 m/s 746 mmHg 74%
    11:00 +5°C° 0 mm 5 m/s 746 mmHg 72%
    12:00 +7°C° 0 mm 5 m/s 746 mmHg 70%
    13:00 +8°C° 0 mm 5 m/s 746 mmHg 68%
    14:00 +7°C° 0.2 mm 5 m/s 746 mmHg 73%
    15:00 +7°C° 0.2 mm 5 m/s 746 mmHg 78%
    16:00 +6°C° 0.2 mm 5 m/s 746 mmHg 82%
    17:00 +6°C° 0.2 mm 4 m/s 746 mmHg 82%
    18:00 +5°C° 0.2 mm 4 m/s 746 mmHg 82%
    19:00 +5°C° 0.2 mm 4 m/s 746 mmHg 82%
    20:00 +5°C° 0 mm 4 m/s 746 mmHg 82%
    21:00 +4°C° 0 mm 4 m/s 746 mmHg 82%
    22:00 +4°C° 0 mm 4 m/s 746 mmHg 83%
    23:00 +4°C° 0 mm 4 m/s 747 mmHg 82%

    Depois de amanhã, 20 Fevereiro, Quarta-feira

    Tempo Temperatura Precipitação Vento Pressão Humidade
    00:00 +4°C° 0 mm 4 m/s 747 mmHg 82%
    01:00 +4°C° 0 mm 4 m/s 747 mmHg 82%
    02:00 +2°C° 0 mm 5 m/s 747 mmHg 82%
    03:00 +2°C° 0 mm 5 m/s 747 mmHg 82%
    04:00 +2°C° 0 mm 5 m/s 747 mmHg 83%
    05:00 +2°C° 0.1 mm 5 m/s 747 mmHg 82%
    06:00 +2°C° 0.1 mm 5 m/s 748 mmHg 82%
    07:00 +2°C° 0.1 mm 5 m/s 748 mmHg 81%
    08:00 +2°C° 0.1 mm 5 m/s 748 mmHg 79%
    09:00 +3°C° 0.1 mm 6 m/s 749 mmHg 77%
    10:00 +3°C° 0.1 mm 6 m/s 749 mmHg 75%
    11:00 +3°C° 0.1 mm 6 m/s 749 mmHg 75%
    12:00 +3°C° 0.1 mm 6 m/s 750 mmHg 76%
    13:00 +4°C° 0.1 mm 6 m/s 750 mmHg 76%
    14:00 +5°C° 0.1 mm 5 m/s 750 mmHg 76%
    15:00 +5°C° 0.1 mm 5 m/s 750 mmHg 77%
    16:00 +5°C° 0.1 mm 5 m/s 751 mmHg 77%
    17:00 +4°C° 0 mm 4 m/s 751 mmHg 80%
    18:00 +4°C° 0 mm 4 m/s 751 mmHg 83%
    19:00 +4°C° 0 mm 3 m/s 751 mmHg 86%
    20:00 +4°C° 0.1 mm 3 m/s 751 mmHg 88%
    21:00 +4°C° 0.1 mm 3 m/s 752 mmHg 89%
    22:00 +4°C° 0.1 mm 3 m/s 752 mmHg 91%
    23:00 +4°C° 0.1 mm 3 m/s 751 mmHg 91%

    21 Fevereiro, Quinta-feira

    Tempo Temperatura Precipitação Vento Pressão Humidade
    00:00 +4°C° 0.1 mm 3 m/s 751 mmHg 91%
    01:00 +4°C° 0.1 mm 3 m/s 751 mmHg 91%
    02:00 +4°C° 0.2 mm 4 m/s 751 mmHg 90%
    03:00 +4°C° 0.2 mm 4 m/s 751 mmHg 90%
    04:00 +4°C° 0.2 mm 4 m/s 750 mmHg 90%
    05:00 +4°C° 0.4 mm 4 m/s 750 mmHg 90%
    06:00 +4°C° 0.4 mm 4 m/s 750 mmHg 90%
    07:00 +4°C° 0.4 mm 4 m/s 750 mmHg 90%
    08:00 +5°C° 0.3 mm 4 m/s 750 mmHg 90%
    09:00 +5°C° 0.3 mm 4 m/s 751 mmHg 90%
    10:00 +5°C° 0.3 mm 4 m/s 751 mmHg 89%
    11:00 +6°C° 0.1 mm 4 m/s 751 mmHg 88%
    12:00 +6°C° 0.1 mm 4 m/s 751 mmHg 87%
    13:00 +6°C° 0.1 mm 4 m/s 752 mmHg 86%
    14:00 +7°C° 0.1 mm 3 m/s 752 mmHg 86%
    15:00 +7°C° 0.1 mm 3 m/s 753 mmHg 86%
    16:00 +7°C° 0.1 mm 3 m/s 753 mmHg 86%
    17:00 +5°C° 0.2 mm 3 m/s 754 mmHg 88%
    18:00 +4°C° 0.2 mm 3 m/s 755 mmHg 89%
    19:00 +4°C° 0.2 mm 3 m/s 755 mmHg 90%
    20:00 +3°C° 0 mm 3 m/s 756 mmHg 88%
    21:00 +2°C° 0 mm 3 m/s 757 mmHg 85%
    22:00 +1°C° 0 mm 3 m/s 758 mmHg 83%
    23:00 +1°C° 0 mm 2 m/s 758 mmHg 82%

    22 Fevereiro, Sexta-feira

    Tempo Temperatura Precipitação Vento Pressão Humidade
    00:00 +1°C° 0 mm 2 m/s 759 mmHg 81%
    01:00 +1°C° 0 mm 1 m/s 760 mmHg 80%
    02:00 -1°C° 0 mm 2 m/s 760 mmHg 77%
    03:00 -1°C° 0 mm 2 m/s 761 mmHg 74%
    04:00 -1°C° 0 mm 2 m/s 762 mmHg 71%
    05:00 -2°C° 0 mm 2 m/s 762 mmHg 69%
    06:00 -2°C° 0 mm 2 m/s 763 mmHg 66%
    07:00 -2°C° 0 mm 2 m/s 764 mmHg 64%
    08:00 -1°C° 0 mm 2 m/s 764 mmHg 58%
    09:00 +1°C° 0 mm 2 m/s 765 mmHg 53%
    10:00 +1°C° 0 mm 2 m/s 766 mmHg 48%
    11:00 +2°C° 0 mm 2 m/s 766 mmHg 44%
    12:00 +3°C° 0 mm 2 m/s 767 mmHg 41%
    13:00 +4°C° 0 mm 1 m/s 767 mmHg 37%
    14:00 +4°C° 0 mm 1 m/s 767 mmHg 38%
    15:00 +4°C° 0 mm 1 m/s 767 mmHg 39%
    16:00 +4°C° 0 mm 1 m/s 767 mmHg 40%
    17:00 +3°C° 0 mm 1 m/s 768 mmHg 43%
    18:00 +3°C° 0 mm 1 m/s 768 mmHg 47%
    19:00 +2°C° 0 mm 1 m/s 768 mmHg 50%
    20:00 +2°C° 0 mm 1 m/s 768 mmHg 51%
    21:00 +1°C° 0 mm 2 m/s 768 mmHg 53%
    22:00 -1°C° 0 mm 2 m/s 768 mmHg 54%
    23:00 -1°C° 0 mm 2 m/s 768 mmHg 55%

    23 Fevereiro, Sábado

    Tempo Temperatura Precipitação Vento Pressão Humidade
    00:00 -1°C° 0 mm 2 m/s 768 mmHg 56%
    01:00 -1°C° 0 mm 3 m/s 768 mmHg 57%
    02:00 -1°C° 0 mm 3 m/s 768 mmHg 59%
    03:00 -1°C° 0 mm 3 m/s 768 mmHg 61%
    04:00 0°C° 0 mm 3 m/s 767 mmHg 63%
    05:00 0°C° 0 mm 3 m/s 767 mmHg 68%
    06:00 0°C° 0 mm 3 m/s 767 mmHg 74%
    07:00 0°C° 0 mm 3 m/s 767 mmHg 80%
    08:00 0°C° 0 mm 4 m/s 766 mmHg 81%
    09:00 +3°C° 0 mm 4 m/s 766 mmHg 83%
    10:00 +4°C° 0 mm 4 m/s 766 mmHg 84%
    11:00 +5°C° 0 mm 4 m/s 766 mmHg 84%
    12:00 +5°C° 0 mm 4 m/s 766 mmHg 84%
    13:00 +6°C° 0 mm 5 m/s 765 mmHg 84%
    14:00 +6°C° 0 mm 5 m/s 765 mmHg 84%
    15:00 +6°C° 0 mm 5 m/s 764 mmHg 84%
    16:00 +7°C° 0 mm 5 m/s 764 mmHg 84%
    17:00 +6°C° 0 mm 5 m/s 764 mmHg 86%
    18:00 +6°C° 0 mm 5 m/s 764 mmHg 88%
    19:00 +5°C° 0 mm 5 m/s 764 mmHg 89%
    20:00 +5°C° 0 mm 5 m/s 764 mmHg 89%
    21:00 +5°C° 0 mm 5 m/s 763 mmHg 89%
    22:00 +5°C° 0 mm 5 m/s 763 mmHg 88%
    23:00 +5°C° 0 mm 5 m/s 763 mmHg 88%
    Mostrar mais